Find Starlink 33622

NORAD ID: 63066 Int'l Des: 2025-035 Owner: SPXS Country: US Constellation: starlink operational
LEOCIRCULAR

实时位置

正在加载3D地球...

关于 Starlink 33622

正在加载描述...

即将过境

Passes for default location (London). Set your location on the main map for personalized predictions.

高度历史

Loading altitude history...

两行轨道根数

1 63066U 25035Q 26124.20815046 .00020871 00000-0 76549-3 0 9999
2 63066 42.9987 193.2679 0000439 241.3195 118.7612 15.27593856 68225
Epoch: May 4, 2026 • Age: 21 hours

当前状态

高度 483.7 km
速度 7.63 km/s
星下点 30.39°N, 77.07°E
发射日期 Feb 21, 2025
运行时间 1.1 years
类型 internet

技术详情

分类 Payload
质量 575.00 kg
干质量 530.00 kg
总质量 575.00 kg
长度 0.30 m
直径 4.10 m
跨度 29.00 m
形状 Box + pan
制造商 SPXS
平台类型 Starlink V2MO
阶段状态 In Orbit
所有者/国家 SPXS/US

Most Searched